[[{"header":{"parameterUnit":"m.s-1","parameterCategory":1,"la1":30.2991,"la2":30.254,"lo1":-89.0895,"lo2":-89.0444,"dy":0.0017,"dx":0.0017,"nx":28,"ny":28,"refTime":"2024-08-16T09:00:00:Z","depth":0,"parameterNumber":2,"parameterNumberName":"U-component_of_WINDS"},"data":[0,0,0,0,0,0,0,0,0,0,0,0,0,0,0,0,0,0,0,0,0,0,0,0,0,0,0,0,0,0,0,0,0,0,0,0,0,0,0,0,0,0,0,0,0,0,0,0,0,0,0,0,0,0,0,0,0,0,-1.2144,-1.2143,0,-1.2077,-1.2077,-1.2076,-1.1982,-1.1981,-1.1979,-1.1978,-1.1911,-1.191,-1.191,0,0,0,0,0,0,0,0,0,0,0,0,0,-1.219,-1.219,-1.2144,-1.2143,-1.2142,-1.2077,-1.2077,-1.2076,-1.1983,-1.1981,-1.1979,-1.1977,-1.1911,-1.191,-1.191,0,0,0,0,0,0,0,0,0,0,0,0,0,-1.2152,-1.219,-1.2144,-1.2088,-1.2082,-1.2078,-1.2076,-1.2075,-1.1983,-1.1981,-1.1978,-1.1976,-1.1911,-1.191,-1.191,-1.1955,0,0,-1.1908,-1.1908,0,0,0,0,0,0,0,0,-1.2154,-1.215,-1.2097,-1.2092,-1.2085,-1.2036,-1.2068,-1.2035,-1.1984,-1.2021,-1.1978,-1.1975,-1.1954,-1.195,-1.1943,-1.1952,-1.1949,-1.1908,-1.1908,-1.1908,-1.1908,0,0,0,0,0,0,0,-1.2157,-1.2152,-1.2117,-1.2096,-1.2089,-1.2066,-1.2058,-1.2061,-1.2002,-1.2017,-1.201,-1.2004,-1.1951,-1.1943,-1.1941,-1.1948,-1.1908,-1.1908,-1.1908,-1.1908,-1.199,-1.1992,0,0,0,0,0,0,-1.2168,-1.2155,-1.212,-1.2115,-1.2114,-1.2067,-1.2058,-1.2054,-1.2001,-1.1991,-1.2006,-1.2,-1.1945,-1.1941,-1.1938,-1.1987,-1.1908,-1.1908,-1.1907,-1.1987,-1.199,-1.1993,0,0,0,0,0,0,-1.2169,-1.2165,-1.2122,-1.2133,-1.2126,-1.2069,-1.2065,-1.2054,-1.2047,-1.1993,-1.1982,-1.201,-1.1943,-1.1938,-1.1951,-1.1983,-1.1907,-1.1907,-1.1984,-1.1988,-1.1991,-1.2085,0,0,0,0,0,0,-1.2171,-1.2166,-1.2183,-1.2134,-1.2126,-1.2137,-1.2067,-1.2054,-1.2046,-1.2037,-1.1993,-1.1984,-1.1941,-1.1952,-1.1951,-1.1981,-1.1907,-1.1981,-1.1986,-1.199,-1.2079,-1.2092,-1.2103,0,0,0,0,0,-1.2173,-1.2213,-1.2184,-1.2181,-1.2146,-1.2139,-1.2134,-1.2084,-1.2049,-1.2065,-1.203,-1.1985,-1.198,-1.1954,-1.1952,-1.1983,-1.1979,-1.1985,-1.199,-1.2074,-1.2089,-1.2102,0,0,0,0,0,0,-1.2267,-1.2205,-1.2173,-1.2199,-1.2175,-1.2123,-1.2142,-1.2102,-1.2088,-1.208,-1.2019,-1.201,-1.203,-1.2007,-1.198,-1.2023,-1.1972,-1.1978,-1.2037,-1.2051,-1.2063,-1.2068,-1.1906,0,0,0,0,0,-1.2291,-1.2291,-1.2237,-1.2264,-1.2254,-1.2201,-1.2196,-1.2159,-1.2132,-1.2122,-1.2087,-1.2063,-1.2055,-1.2052,-1.2042,-1.2075,-1.2064,-1.2095,-1.2107,-1.2117,-1.2122,-1.2137,-1.215,-1.2011,-1.2011,-1.2011,0,0,-1.234,-1.2306,-1.231,-1.2282,-1.2259,-1.2261,-1.2193,-1.2197,-1.2197,-1.2122,-1.2132,-1.2106,-1.2075,-1.2098,-1.2106,-1.2079,-1.2158,-1.2124,-1.2132,-1.2132,-1.2144,-1.2157,-1.2169,-1.2015,-1.2014,-1.2013,0,0,-1.243,-1.2405,-1.2425,-1.2403,-1.2369,-1.2333,-1.2338,-1.2292,-1.2272,-1.2281,-1.2224,-1.2223,-1.2212,-1.2192,-1.218,-1.2261,-1.2219,-1.226,-1.2321,-1.2337,-1.2348,-1.2357,-1.2386,-1.2397,-1.2265,-1.2266,-1.2266,0,-1.2496,-1.2495,-1.244,-1.2448,-1.2437,-1.2368,-1.2388,-1.2369,-1.2335,-1.2329,-1.2299,-1.2283,-1.2257,-1.2274,-1.2293,-1.2286,-1.229,-1.2265,-1.2351,-1.2359,-1.2367,-1.2394,-1.2405,-1.2271,-1.227,-1.227,-1.2269,0,-1.2578,-1.2578,-1.2598,-1.2565,-1.2557,-1.2571,-1.2517,-1.2515,-1.2479,-1.2446,-1.2455,-1.2421,-1.2403,-1.2404,-1.2369,-1.2416,-1.2401,-1.2362,-1.231,-1.2387,-1.2411,-1.2421,-1.2278,-1.2276,-1.2275,-1.2273,0,0,-1.2727,-1.2662,-1.2671,-1.2655,-1.2611,-1.2611,-1.2621,-1.2602,-1.2602,-1.258,-1.2587,-1.2578,-1.2541,-1.2528,-1.249,-1.2503,-1.2569,-1.2462,-1.2461,-1.2484,-1.2619,-1.2648,-1.2661,-1.2541,-1.2542,-1.2544,-1.2621,0,-1.2809,-1.2823,-1.2773,-1.2799,-1.2799,-1.2733,-1.2742,-1.2716,-1.2685,-1.268,-1.2646,-1.2641,-1.2593,-1.2584,-1.2595,-1.2559,-1.2596,-1.2553,-1.2547,-1.2547,-1.2557,-1.2674,-1.2706,-1.278,-1.263,-1.2632,-1.2633,0,-1.2907,-1.2889,-1.2916,-1.287,-1.2868,-1.2877,-1.2856,-1.2852,-1.2821,-1.2798,-1.2782,-1.2738,-1.2744,-1.2694,-1.2702,-1.2674,-1.2668,-1.265,-1.2652,-1.265,-1.2595,-1.2675,-1.2803,-1.2815,-1.2647,-1.2646,-1.2645,0,-1.3013,-1.2996,-1.3009,-1.2998,-1.2945,-1.2953,-1.2931,-1.2898,-1.289,-1.2871,-1.2865,-1.2848,-1.2839,-1.2826,-1.2777,-1.2746,-1.2791,-1.2737,-1.2772,-1.2773,-1.2785,-1.2785,-1.2914,-1.2781,-1.2781,-1.278,-1.278,0,-1.3111,-1.313,-1.3056,-1.3065,-1.3084,-1.3026,-1.3046,-1.3018,-1.2989,-1.299,-1.2932,-1.2935,-1.287,-1.2866,-1.2828,-1.284,-1.2836,-1.2817,-1.2807,-1.2823,-1.2825,-1.2819,-1.2813,-1.2783,-1.2783,-1.2782,-1.2782,0,-1.3233,-1.3185,-1.3195,-1.3144,-1.3131,-1.3148,-1.3104,-1.3109,-1.3074,-1.3077,-1.3074,-1.3019,-1.3011,-1.2961,-1.2941,-1.2916,-1.2941,-1.2921,-1.2952,-1.2945,-1.2983,-1.298,-1.3112,-1.3127,-1.2985,-1.2986,-1.2987,0,-1.3299,-1.3312,-1.3262,-1.3258,-1.3239,-1.3235,-1.3226,-1.3169,-1.3162,-1.3127,-1.3137,-1.3123,-1.311,-1.3099,-1.3058,-1.3042,-1.302,-1.3068,-1.3018,-1.3033,-1.3021,-1.3021,-1.3022,-1.3079,-1.3081,-1.3082,-1.3083,0,-1.3421,-1.3396,-1.3385,-1.3366,-1.3357,-1.334,-1.3318,-1.3319,-1.3256,-1.3251,-1.3241,-1.323,-1.321,-1.3197,-1.3174,-1.3151,-1.3107,-1.3099,-1.3106,-1.3123,-1.3141,-1.3132,-1.2981,-1.3097,-1.3095,-1.3094,-1.3094,-1.3093,-1.3517,-1.3525,-1.3491,-1.3481,-1.3458,-1.344,-1.3442,-1.3407,-1.3398,-1.3376,-1.3343,-1.3338,-1.3305,-1.3269,-1.325,-1.3245,-1.322,-1.323,-1.3233,-1.3237,-1.3245,-1.3141,-1.3241,-1.324,-1.324,-1.3239,-1.3239,0,-1.3636,-1.361,-1.3601,-1.3573,-1.3565,-1.3523,-1.3497,-1.3493,-1.3489,-1.3463,-1.345,-1.3439,-1.3426,-1.3383,-1.3365,-1.3369,-1.3349,-1.3367,-1.3366,-1.3361,-1.3268,-1.3264,-1.3384,-1.3384,-1.3384,-1.3384,-1.3384,-1.3384,-1.3697,-1.3708,-1.3679,-1.3678,-1.3652,-1.3647,-1.3635,-1.3617,-1.3596,-1.3585,-1.3574,-1.3546,-1.3512,-1.3492,-1.3478,-1.3465,-1.3462,-1.3487,-1.3468,-1.3382,-1.3368,-1.3355,-1.335,-1.3486,-1.3487,-1.3561,-1.3562,-1.3563]},{"header":{"parameterUnit":"m.s-1","parameterCategory":1,"la1":30.2991,"la2":30.254,"lo1":-89.0895,"lo2":-89.0444,"dy":0.0017,"dx":0.0017,"nx":28,"ny":28,"refTime":"2024-08-16T09:00:00:Z","depth":0,"parameterNumber":3,"parameterNumberName":"V-component_of_WINDS"},"data":[0,0,0,0,0,0,0,0,0,0,0,0,0,0,0,0,0,0,0,0,0,0,0,0,0,0,0,0,0,0,0,0,0,0,0,0,0,0,0,0,0,0,0,0,0,0,0,0,0,0,0,0,0,0,0,0,0,0,-0.0714,-0.0713,0,-0.0553,-0.0551,-0.0549,-0.0474,-0.0474,-0.0474,-0.0474,-0.031,-0.0306,-0.0301,0,0,0,0,0,0,0,0,0,0,0,0,0,-0.0959,-0.0955,-0.0714,-0.0712,-0.071,-0.0553,-0.0551,-0.0548,-0.0474,-0.0474,-0.0474,-0.0474,-0.0312,-0.0306,-0.0301,0,0,0,0,0,0,0,0,0,0,0,0,0,-0.0831,-0.0954,-0.0715,-0.0654,-0.0647,-0.0553,-0.0551,-0.0548,-0.0474,-0.0474,-0.0474,-0.0474,-0.0313,-0.0307,-0.03,-0.0255,0,0,-0.028,-0.0277,0,0,0,0,0,0,0,0,-0.0838,-0.0822,-0.0665,-0.0658,-0.065,-0.0534,-0.0577,-0.045,-0.0474,-0.054,-0.0474,-0.0475,-0.0384,-0.0372,-0.0341,-0.0247,-0.024,-0.0279,-0.0275,-0.0272,-0.027,0,0,0,0,0,0,0,-0.0847,-0.0829,-0.065,-0.0663,-0.0654,-0.0635,-0.0617,-0.0552,-0.0463,-0.0534,-0.0528,-0.051,-0.038,-0.0348,-0.0337,-0.0238,-0.0279,-0.0273,-0.0269,-0.0266,-0.0097,-0.0096,0,0,0,0,0,0,-0.0866,-0.0836,-0.0655,-0.0646,-0.0747,-0.0631,-0.061,-0.0571,-0.0464,-0.0447,-0.051,-0.0507,-0.0359,-0.0345,-0.0331,-0.0269,-0.0272,-0.0266,-0.0262,-0.0097,-0.0097,-0.0096,0,0,0,0,0,0,-0.0871,-0.085,-0.0662,-0.0739,-0.0714,-0.0626,-0.0582,-0.0568,-0.0535,-0.0445,-0.0429,-0.0493,-0.0359,-0.034,-0.0274,-0.0263,-0.0263,-0.0257,-0.0098,-0.0097,-0.0096,-0.0147,0,0,0,0,0,0,-0.0879,-0.0853,-0.0835,-0.0739,-0.071,-0.0608,-0.0582,-0.0564,-0.0523,-0.0518,-0.0425,-0.041,-0.0357,-0.0284,-0.0267,-0.0253,-0.0251,-0.0098,-0.0097,-0.0096,-0.0146,-0.0148,-0.015,0,0,0,0,0,-0.0888,-0.0856,-0.0834,-0.0813,-0.0685,-0.0607,-0.0591,-0.053,-0.0523,-0.0504,-0.0446,-0.0413,-0.0267,-0.0278,-0.0258,-0.0242,-0.0099,-0.0098,-0.0097,-0.0145,-0.0148,-0.015,0,0,0,0,0,0,-0.0953,-0.0843,-0.0817,-0.0754,-0.069,-0.0595,-0.0569,-0.0535,-0.0474,-0.0471,-0.04,-0.0379,-0.0319,-0.0274,-0.0288,-0.0192,-0.018,-0.0175,-0.0224,-0.0225,-0.0227,-0.0239,-0.0246,0,0,0,0,0,-0.096,-0.0906,-0.0812,-0.0765,-0.0735,-0.0658,-0.0621,-0.058,-0.0512,-0.0485,-0.0423,-0.0358,-0.0297,-0.0259,-0.0198,-0.0139,-0.0118,-0.0119,-0.0121,-0.0123,-0.0119,-0.0084,-0.0083,-0.0093,-0.0093,-0.0093,0,0,-0.0974,-0.0907,-0.0877,-0.0777,-0.0723,-0.0668,-0.0636,-0.0579,-0.0538,-0.0477,-0.041,-0.0362,-0.0285,-0.0222,-0.0191,-0.0182,-0.0112,-0.0122,-0.0124,-0.0119,-0.0083,-0.0082,-0.0081,-0.0092,-0.0092,-0.0092,0,0,-0.0972,-0.0916,-0.087,-0.0816,-0.0735,-0.0683,-0.0673,-0.0582,-0.0547,-0.0479,-0.0431,-0.0381,-0.0278,-0.0225,-0.0185,-0.0161,-0.0128,-0.0143,-0.0154,-0.012,-0.0119,-0.0118,-0.0109,-0.0106,-0.014,-0.014,-0.014,0,-0.0999,-0.0915,-0.0851,-0.0796,-0.0753,-0.0694,-0.0647,-0.0599,-0.0502,-0.0474,-0.0465,-0.0334,-0.0278,-0.0201,-0.0196,-0.0165,-0.015,-0.0153,-0.0124,-0.0123,-0.0121,-0.0111,-0.0108,-0.0142,-0.0142,-0.0142,-0.0142,0,-0.0952,-0.0894,-0.0867,-0.0774,-0.0728,-0.0678,-0.0606,-0.0567,-0.053,-0.048,-0.041,-0.0341,-0.0265,-0.0243,-0.0207,-0.0161,-0.0158,-0.0138,-0.0124,-0.0123,-0.0113,-0.0109,-0.0146,-0.0145,-0.0144,-0.0143,0,0,-0.0987,-0.0858,-0.0849,-0.0806,-0.0711,-0.0665,-0.0612,-0.0537,-0.0504,-0.044,-0.0393,-0.0307,-0.0287,-0.0241,-0.0198,-0.0169,-0.0153,-0.0152,-0.0149,-0.0154,-0.0097,-0.0113,-0.0109,-0.0131,-0.013,-0.0129,-0.0103,0,-0.097,-0.0872,-0.0812,-0.0738,-0.0683,-0.0626,-0.058,-0.0517,-0.0468,-0.0415,-0.0361,-0.0301,-0.028,-0.0252,-0.022,-0.0162,-0.0141,-0.0163,-0.0086,-0.0085,-0.0107,-0.0104,-0.012,-0.0099,-0.0099,-0.0098,-0.0098,0,-0.0938,-0.0874,-0.0794,-0.0704,-0.0679,-0.0638,-0.0564,-0.0514,-0.0441,-0.0407,-0.0356,-0.0312,-0.0254,-0.0245,-0.0163,-0.0179,-0.0144,-0.0111,-0.0109,-0.0099,-0.0091,-0.0094,-0.0091,-0.0088,-0.0091,-0.0092,-0.0092,0,-0.097,-0.0864,-0.0802,-0.0766,-0.0661,-0.0633,-0.0588,-0.0515,-0.0474,-0.0409,-0.0381,-0.031,-0.0272,-0.0218,-0.0157,-0.0156,-0.0081,-0.0067,-0.0051,-0.0053,-0.0037,-0.0039,-0.0029,-0.0016,-0.0016,-0.0016,-0.0016,0,-0.0958,-0.0911,-0.0814,-0.0776,-0.0722,-0.0654,-0.0602,-0.0552,-0.0488,-0.0439,-0.0386,-0.0341,-0.0263,-0.0209,-0.016,-0.0099,-0.0082,-0.0054,-0.0041,-0.0058,-0.0062,-0.0034,-0.0034,-0.0015,-0.0016,-0.0016,-0.0016,0,-0.0985,-0.0918,-0.0846,-0.0752,-0.0727,-0.0691,-0.061,-0.0571,-0.0519,-0.0458,-0.044,-0.0359,-0.0292,-0.0225,-0.0135,-0.0103,-0.0042,-0.0026,-0.0067,-0.006,-0.0047,-0.0049,-0.0019,-0.0011,-0.0005,-0.0005,-0.0005,0,-0.0981,-0.0943,-0.0844,-0.0807,-0.0763,-0.0705,-0.0661,-0.0593,-0.055,-0.0464,-0.0435,-0.0364,-0.0303,-0.0199,-0.0132,-0.0063,-0.0044,-0.0038,-0.0034,-0.0051,-0.0043,-0.0046,-0.0042,-0.0041,-0.0041,-0.0041,-0.0042,0,-0.0981,-0.095,-0.0889,-0.0817,-0.0766,-0.0706,-0.0644,-0.0617,-0.0537,-0.0491,-0.0422,-0.0375,-0.0283,-0.0213,-0.0135,-0.0089,-0.0052,-0.0044,-0.0036,-0.0053,-0.0077,-0.0063,-0.0072,-0.0045,-0.0044,-0.0044,-0.0044,-0.0044,-0.0991,-0.0955,-0.0879,-0.0813,-0.0759,-0.0703,-0.0661,-0.0603,-0.0544,-0.0463,-0.0426,-0.0357,-0.0284,-0.0176,-0.013,-0.0074,-0.0065,-0.0054,-0.0051,-0.0049,-0.0053,-0.0087,-0.006,-0.006,-0.006,-0.006,-0.006,0,-0.0988,-0.0936,-0.0876,-0.0791,-0.0739,-0.0708,-0.0638,-0.0596,-0.0535,-0.047,-0.0411,-0.0331,-0.0263,-0.0191,-0.0118,-0.0087,-0.0068,-0.0071,-0.0072,-0.0062,-0.0066,-0.008,-0.0087,-0.0087,-0.0087,-0.0087,-0.0087,-0.0087,-0.098,-0.0917,-0.0876,-0.0785,-0.0734,-0.0664,-0.0626,-0.0574,-0.0521,-0.0434,-0.0377,-0.033,-0.0261,-0.0183,-0.0119,-0.0099,-0.0075,-0.0082,-0.0058,-0.0063,-0.0061,-0.006,-0.0072,-0.0077,-0.0077,-0.0057,-0.0057,-0.0057]}]]